Hourly Data Report for July 23, 2021

NORTH CAPE
PRINCE EDWARD ISLAND
Current Station Operator: ECCC - MSC

47°03'29.000" N
63°59'55.000" W
7.60 m
8300516
71987
WNE

Download Data

Hourly Data (July 2021)
Hourly Data Report for July 23, 2021
TIME
LST
Temp Definition
°C
Dew Point Definition
°C
Rel Hum Definition
%
Precip. Amount Definition
mm

Wind Dir Definition
10's deg

Wind Spd Definition
km/h
Visibility Definition
km
Stn Press Definition
kPa
Hmdx Definition


Wind Chill Definition


Weather Definition


00:00 15.2 12.8 86 0.0 34 15   101.34     LegendNANA
01:00 15.4 13.6 89 0.0 32 14   101.34     LegendNANA
02:00 15.2 13.5 89 0.0 33 13   101.35     LegendNANA
03:00 15.1 13.7 91 0.0 31 9   101.35     LegendNANA
04:00 15.3 13.5 89 0.0 30 15   101.34     LegendNANA
05:00 15.4 13.6 89 0.0 28 16   101.35     LegendNANA
06:00 16.0 14.1 89 0.0 27 18   101.38     LegendNANA
07:00 16.6 14.7 88 0.0 27 22   101.39     LegendNANA
08:00 16.5 14.9 91 0.0 26 20   101.42     LegendNANA
09:00 16.9 14.5 86 0.0 27 24   101.44     LegendNANA
10:00 17.5 15.0 85 0.0 26 27   101.43     LegendNANA
11:00 17.7 15.3 86 0.0 27 22   101.45     LegendNANA
12:00 18.2 15.7 85 0.0 30 17   101.45     LegendNANA
13:00 17.9 15.6 87 0.0 31 16   101.46     LegendNANA
14:00 18.4 15.1 81 0.0 1 16   101.47     LegendNANA
15:00 18.2 14.9 81 0.0 2 14   101.45     LegendNANA
16:00 18.0 15.1 83 0.0 1 11   101.48     LegendNANA
17:00 17.5 14.5 83 0.0 1 12   101.51     LegendNANA
18:00 17.3 14.5 84 0.0 36 12   101.55     LegendNANA
19:00 17.1 14.9 87 0.0 35 11   101.58     LegendNANA
20:00 16.7 14.5 87 0.0 36 15   101.62     LegendNANA
21:00 16.6 14.0 85 0.0 2 19   101.66     LegendNANA
22:00 16.4 13.7 84 0.0 3 18   101.65     LegendNANA
23:00 16.1 13.4 84 0.0 1 11   101.64     LegendNANA

Notes on Data Quality.

Legend

  • E = Estimated
  • M = Missing
  • NA = Not Available*
  • [empty] = Indicates an unobserved value
Date modified: